Vorticity
nan nan nan nan nan nan nan nan nan nan nan nan nan nan nan nan nan nan nan nan nan nan nan nan nan nan nan nan nan nan nan nan nan nan nan nan nan nan
nan 8 9 9 10 11 10 10 8 9 9 10 8 7 7 7 8 9 6 10 14 7 15 17 21 27 19 15 15 13 23 18 13 11 9 8 8 nan
nan 10 8 10 10 9 10 9 9 9 10 5 7 8 9 9 8 8 11 17 10 3 12 20 26 23 14 13 27 39 34 16 8 10 10 8 8 nan
nan 10 11 10 8 11 9 9 9 9 9 8 9 10 11 11 11 10 11 12 9 5 9 7 31 34 12 8 32 56 33 12 10 10 10 9 8 nan
nan 10 9 8 10 9 9 10 9 10 10 11 9 10 11 11 12 13 10 12 9 5 8 9 16 21 16 15 30 26 16 15 12 11 10 9 9 nan
nan 10 10 9 5 6 10 9 8 9 10 10 9 9 10 12 13 9 11 13 10 10 6 11 7 7 8 5 23 35 19 8 9 10 9 9 11 nan
nan 11 11 8 9 9 7 6 7 9 9 9 9 10 8 11 12 11 10 13 11 11 10 9 10 6 2 7 14 39 30 10 10 11 8 10 11 nan
nan 12 10 12 13 12 8 8 10 8 8 9 8 7 7 9 10 11 10 11 11 6 9 9 9 11 8 5 25 44 24 12 10 10 11 9 9 nan
nan 10 10 11 12 13 12 13 13 11 12 11 9 8 9 8 9 10 11 11 9 6 11 9 6 10 8 5 13 41 34 10 6 9 9 8 9 nan
nan 10 9 9 9 7 11 13 13 14 12 8 7 6 6 5 6 10 11 13 14 8 9 10 7 7 8 -1 9 28 29 18 11 8 7 8 9 nan
nan 11 8 8 5 9 12 11 11 11 10 11 12 9 6 7 8 12 11 13 13 9 10 11 10 6 6 5 8 14 26 26 17 10 9 13 15 nan
nan 11 12 9 9 12 9 11 11 9 11 14 12 16 19 14 12 9 12 13 11 10 10 10 9 10 7 5 9 9 15 29 21 9 16 17 8 nan
nan 12 11 7 12 13 11 9 6 6 13 13 12 11 12 13 15 11 10 12 13 9 10 11 11 12 11 9 4 10 13 8 14 22 19 12 8 nan
nan 10 4 6 8 11 11 7 7 13 15 11 11 9 11 10 10 12 10 12 12 12 11 12 13 13 11 9 7 7 11 12 10 10 6 6 10 nan
nan 7 9 16 12 13 12 14 16 15 10 11 12 11 11 12 10 9 10 9 8 12 12 13 15 13 15 16 12 9 5 8 11 11 9 7 5 nan
nan 15 16 19 22 17 15 17 18 13 11 12 11 10 10 12 12 11 8 7 8 7 11 14 15 19 15 13 14 9 10 14 9 11 11 9 9 nan
nan 19 17 19 19 15 14 12 10 9 11 13 11 10 9 9 11 11 10 10 11 11 10 8 8 10 12 15 12 12 14 11 12 11 8 8 10 nan
nan 14 12 13 15 15 12 10 11 10 11 12 11 11 11 9 10 9 10 10 12 12 11 10 6 3 3 3 13 18 10 9 11 11 10 9 9 nan
nan 11 12 11 12 12 15 16 12 12 11 11 11 10 12 11 11 9 10 10 11 10 10 9 10 8 7 4 1 12 20 9 8 8 11 12 12 nan
nan 11 11 11 11 11 10 15 15 12 12 11 11 11 11 11 11 12 11 11 10 10 9 9 13 19 14 12 10 4 12 20 12 11 9 11 14 nan
nan 13 13 11 11 12 12 11 12 13 12 11 10 12 10 10 11 11 15 14 7 9 11 10 14 14 8 11 14 11 6 13 20 18 10 7 5 nan
nan 13 14 13 12 12 12 12 12 12 14 12 11 12 11 10 11 12 12 11 10 10 12 13 12 3 10 14 13 10 12 8 6 5 9 15 17 nan
nan nan nan nan nan nan nan nan nan nan nan nan nan nan nan nan nan nan nan nan nan nan nan nan nan nan nan nan nan nan nan nan nan nan nan nan nan nan
CAPE
16 19 17 23 27 40 57 65 48 16 9 0 6 8 3 17 1 16 15 12 19 14 7 4 0 118 103 129 123 115 184 109 104 109 138 184 165 177
16 18 17 18 24 44 43 39 38 36 19 5 7 13 8 8 6 25 8 13 12 15 11 4 0 14 17 3 30 32 60 34 56 93 152 194 183 158
11 15 19 18 20 28 33 44 38 38 35 9 8 10 7 7 14 15 9 1 6 7 9 16 6 0 13 0 0 6 20 32 22 91 123 162 156 139
10 15 18 13 16 22 27 38 39 37 36 17 14 11 12 0 1 13 4 5 1 3 11 7 4 1 0 0 0 0 4 0 4 51 77 77 77 89
11 12 14 15 18 22 26 38 34 32 35 28 15 3 5 0 5 14 5 3 1 3 4 6 4 5 1 1 1 0 0 0 4 9 37 53 43 90
19 21 22 27 25 28 25 25 24 27 31 25 22 5 2 0 14 15 2 1 0 0 0 6 6 8 5 1 0 0 0 1 2 4 16 41 42 33
21 24 30 32 46 41 37 33 30 33 27 31 28 25 11 2 18 10 2 4 0 0 0 0 1 1 0 0 0 1 0 0 0 2 8 6 6 11
15 15 16 21 16 24 23 28 59 39 38 34 37 23 5 0 15 7 1 0 1 0 0 0 0 0 1 0 0 0 0 0 0 0 0 1 0 1
21 19 14 8 17 12 18 16 14 17 23 36 19 8 22 17 22 8 1 2 0 0 0 0 0 0 0 0 0 1 0 0 0 0 0 0 0 6
14 11 11 10 9 15 20 16 13 15 19 9 10 12 16 3 5 13 4 0 0 0 0 0 0 0 0 0 2 0 1 0 0 0 0 0 0 2
11 9 8 9 15 20 25 24 6 6 13 19 18 11 6 0 0 2 0 0 0 0 0 0 0 0 0 0 0 0 0 0 0 0 0 0 0 0
4 5 10 12 20 22 26 25 16 0 13 2 6 10 12 0 0 10 6 0 0 0 0 0 0 0 0 0 0 0 0 0 0 0 0 0 0 0
12 9 8 15 15 21 27 20 15 18 35 13 1 0 8 4 1 5 0 2 0 0 0 0 0 0 0 0 0 0 0 0 0 0 0 0 0 0
31 31 3 8 16 8 17 21 18 15 15 8 4 7 2 0 0 0 1 1 0 0 0 0 0 0 0 0 0 0 0 0 0 0 0 8 10 6
20 20 32 36 43 33 32 28 24 8 10 0 1 0 1 9 3 0 0 0 0 0 0 0 0 0 0 0 0 0 0 0 0 0 0 0 0 0
16 14 22 30 34 30 15 7 16 11 13 9 1 1 1 7 6 0 0 0 0 0 0 0 0 0 0 0 0 0 0 0 0 0 0 0 0 0
18 14 2 9 12 13 6 7 8 5 5 14 1 0 0 0 6 1 0 0 0 0 0 0 0 0 0 0 0 0 0 0 0 0 0 0 0 0
11 17 17 19 20 11 2 0 1 2 2 11 2 2 0 0 0 1 0 1 0 0 0 0 0 0 0 1 4 0 0 0 0 0 0 0 0 0
5 9 10 13 15 4 11 0 0 1 4 0 0 0 3 0 0 0 1 1 0 0 0 0 0 0 0 0 0 3 0 0 0 0 0 0 0 0
7 6 4 5 7 11 1 4 1 0 1 0 2 4 0 0 1 1 6 4 0 0 0 0 0 0 0 0 0 0 2 0 0 0 0 0 1 8
4 4 3 3 5 11 8 1 4 0 10 2 6 2 0 1 1 0 0 3 0 0 0 0 0 3 0 0 0 0 0 4 0 0 0 0 0 0
2 5 7 5 5 6 10 11 4 10 8 2 4 2 0 0 1 0 0 0 0 0 0 0 0 0 0 0 0 0 0 0 6 0 0 0 0 0
3 4 7 5 5 7 9 9 8 2 2 0 2 2 1 0 0 0 0 0 0 0 0 0 0 0 0 0 0 0 0 0 0 0 0 0 0 0